SCP
1 1 1 1 1 0 0 0 0 0 0 0 0 0 0 1 1 1 1 1 1 1 1 1 1 1 1 1 1 1 1 1 1 1 1 1 0 0 0 0 0 0 0
1 1 1 1 0 0 0 0 0 0 0 0 0 0 1 1 1 1 1 1 1 1 1 1 1 1 1 1 1 1 1 1 1 1 1 1 1 1 1 1 0 0 0
1 1 1 1 0 0 0 0 0 0 0 0 0 1 1 1 1 1 1 1 1 1 1 1 1 1 1 1 1 1 1 1 1 1 1 1 1 1 1 1 1 0 0
1 1 1 1 1 1 1 0 1 0 0 0 1 1 1 1 1 1 1 1 1 1 1 1 1 1 1 1 1 1 1 1 1 1 1 1 1 1 1 1 1 1 1
1 1 1 1 1 1 1 1 1 1 1 1 1 1 1 1 1 1 1 1 1 1 1 1 1 1 1 1 1 1 1 1 1 1 1 1 1 1 1 1 1 1 1
1 1 1 1 1 1 1 1 1 1 1 1 1 1 1 1 1 1 1 1 1 1 1 1 1 1 1 1 1 1 1 1 1 1 1 1 1 1 1 1 1 1 1
1 1 1 1 1 1 1 1 1 1 1 1 1 1 1 1 2 2 1 1 1 1 1 1 1 1 1 1 1 1 1 1 1 1 1 1 1 1 1 1 1 1 1
1 1 1 1 1 1 2 1 1 1 1 1 1 1 1 1 1 1 1 1 1 1 1 1 1 1 1 1 1 1 1 1 1 1 1 1 1 1 1 1 1 1 1
1 1 1 1 1 1 1 1 1 1 1 1 1 1 1 1 1 1 1 1 1 1 1 1 1 1 1 1 1 1 1 1 1 1 1 1 1 1 1 1 1 1 1
1 1 1 1 1 1 1 1 1 1 1 1 1 1 1 1 1 1 1 1 2 2 2 2 2 2 2 1 1 1 1 1 0 1 1 1 1 1 1 1 1 1 1
1 1 1 1 1 1 1 1 1 1 1 1 1 2 2 2 1 1 1 2 2 2 2 2 3 3 2 2 1 1 1 1 0 0 1 1 1 1 1 1 1 1 1
1 1 1 1 1 1 1 1 1 1 1 1 1 2 2 2 2 2 1 2 2 2 2 2 3 3 3 2 1 1 1 1 0 0 0 0 1 1 1 1 1 1 1
1 1 1 1 1 1 1 1 1 1 1 1 1 1 1 1 2 1 1 1 1 1 2 2 3 3 3 2 1 1 1 1 0 0 0 0 0 0 1 1 1 1 1
1 1 1 1 1 1 1 1 1 1 1 1 1 1 1 1 1 1 1 1 1 1 1 1 2 2 2 1 1 1 1 0 0 0 0 0 0 0 0 1 1 1 1
1 1 1 1 1 1 1 1 1 1 1 1 1 1 1 1 1 1 2 2 1 1 1 1 1 1 1 1 1 1 1 0 0 0 0 0 0 0 0 0 0 0 0
1 1 1 1 1 1 1 1 1 1 1 1 1 1 1 1 1 2 2 2 2 1 1 1 1 1 1 1 1 1 1 1 0 0 0 0 0 0 0 0 0 0 0
2 2 2 1 1 1 1 1 1 1 1 1 1 1 1 2 2 2 2 3 2 2 1 1 1 1 1 1 1 1 1 1 1 0 0 0 0 0 0 0 0 0 0
3 3 2 2 2 2 2 1 1 1 1 1 1 1 1 2 2 1 2 2 2 2 1 1 1 1 1 1 1 1 1 1 1 1 0 0 0 0 0 0 0 0 0
4 3 3 2 2 2 2 2 2 2 1 1 1 1 1 1 1 1 2 2 2 2 2 2 2 2 1 2 2 1 1 1 1 1 0 0 0 0 0 0 0 0 0
5 4 3 2 2 2 2 2 2 2 2 2 1 1 1 1 1 2 2 2 2 2 2 2 2 2 2 2 2 2 2 2 1 1 1 1 1 0 0 0 0 0 0
5 5 4 3 3 3 3 3 3 3 3 3 2 2 1 1 1 1 1 1 2 1 1 1 1 1 1 1 2 2 2 2 2 2 2 2 2 1 1 0 0 0 0
7 7 5 4 4 4 4 3 3 4 4 4 3 2 2 1 1 1 1 1 1 1 1 1 1 1 1 1 1 1 1 1 1 2 2 2 2 2 2 1 0 0 0
10 9 6 5 4 4 4 3 3 3 4 4 4 3 3 2 1 1 0 0 1 1 1 1 1 1 1 0 0 0 0 0 1 1 1 1 2 2 2 2 1 0 0
11 10 8 6 5 4 3 2 2 3 4 3 3 3 3 3 2 1 1 1 1 1 0 0 1 1 1 0 0 0 0 0 0 0 1 1 1 2 2 2 1 0 0
11 11 9 7 6 4 3 1 2 4 4 3 3 2 3 3 2 1 1 1 1 1 0 0 0 0 0 0 0 0 0 0 0 0 1 1 1 1 2 2 2 1 0
12 12 10 8 6 5 3 1 2 4 5 4 3 2 2 2 1 1 1 1 1 1 1 0 0 0 0 0 0 0 0 0 0 0 1 1 1 1 2 2 2 1 1
Wind_Speed
2 2 2 1 1 2 3 2 2 2 2 2 1 1 0 0 0 0 3 8 6 5 5 6 6 7 8 8 8 9 8 8 8 8 8 8 8 8 8 8 8 8 7
2 1 2 1 1 1 2 1 2 2 1 1 1 1 0 0 0 0 1 5 6 5 4 5 5 6 7 8 8 9 9 8 8 8 8 8 7 8 8 8 8 8 7
2 1 1 1 1 2 2 1 1 1 2 2 2 1 0 1 1 1 1 1 3 6 5 4 4 4 5 6 7 7 8 8 8 8 8 7 7 7 7 7 7 7 6
1 0 1 1 1 1 1 1 1 1 1 1 1 0 1 1 1 1 1 1 1 1 5 5 4 4 4 5 6 6 7 8 8 8 8 7 7 7 7 7 6 6 6
1 0 1 1 1 1 1 1 2 1 1 1 1 1 1 1 1 0 1 1 0 1 1 4 4 2 3 3 5 5 6 6 7 8 7 7 7 7 6 7 6 6 6
1 1 1 1 0 0 0 0 0 1 1 1 1 2 1 1 1 1 1 1 1 1 1 0 2 3 2 1 1 2 3 4 5 7 7 7 7 7 6 7 6 6 6
1 1 1 1 1 1 1 1 1 2 2 2 2 2 2 1 1 1 1 1 2 2 2 2 2 1 3 4 3 2 1 1 2 3 4 4 6 6 6 6 6 6 6
1 0 1 1 1 0 0 1 1 1 1 2 2 1 2 3 2 2 1 1 2 2 2 3 2 2 2 1 4 4 3 2 1 1 1 3 4 5 6 6 6 6 5
1 2 1 2 1 1 1 1 1 2 1 2 2 2 1 0 2 2 2 2 2 2 2 3 3 3 2 2 2 5 4 3 2 2 1 1 2 3 4 5 6 6 5
0 1 1 1 1 1 1 1 1 1 2 1 1 1 2 1 1 2 2 2 2 2 2 2 2 3 3 3 4 7 6 5 4 3 3 2 2 3 3 3 4 4 5
0 1 1 1 1 1 1 2 1 2 1 1 1 1 0 1 2 2 1 1 1 1 2 2 3 3 3 3 3 6 7 6 5 4 4 4 3 3 3 3 3 3 4
1 1 1 1 1 1 1 1 1 1 2 2 2 1 1 1 1 1 1 1 1 1 2 2 2 2 2 3 6 9 8 7 6 6 6 6 5 4 3 3 2 2 3
1 1 1 1 1 1 1 1 1 1 1 1 2 1 1 1 1 1 1 1 1 1 2 1 2 2 2 4 5 7 8 7 7 7 7 7 7 6 6 5 5 4 4
1 1 0 0 1 1 1 1 1 1 1 1 2 2 2 1 1 1 1 1 1 2 2 1 2 1 2 3 5 2 6 7 8 7 8 8 8 8 8 8 8 7 7
0 1 0 1 1 1 2 1 1 1 1 2 1 1 2 0 1 1 2 2 2 1 2 2 1 2 2 3 2 3 4 8 7 7 7 7 8 8 9 9 9 8 8
1 1 1 1 1 1 1 1 0 1 1 1 2 2 2 1 0 1 2 1 1 1 1 2 2 2 2 3 4 3 5 8 7 6 6 6 7 8 8 8 8 8 8
1 1 1 1 1 1 1 1 1 1 1 1 1 1 1 1 1 1 1 1 1 1 2 2 3 4 3 2 3 3 3 3 5 6 6 6 6 6 7 7 7 7 8
2 2 1 1 1 1 1 0 1 1 1 1 1 1 1 0 0 1 1 0 0 0 2 3 3 4 4 3 3 2 2 3 4 8 7 6 6 6 6 6 6 6 7
2 2 2 2 1 1 1 0 0 0 1 1 1 1 1 1 0 1 1 0 1 1 1 3 3 3 3 3 3 3 3 2 3 7 9 7 6 6 5 5 5 5 5
3 2 2 2 2 2 1 1 0 0 0 1 1 1 1 1 1 0 1 0 0 1 2 2 3 3 3 3 3 3 3 3 2 3 4 5 8 8 7 6 5 5 4
4 3 2 2 2 2 1 0 1 1 1 1 1 1 2 3 5 2 2 0 1 1 2 2 2 3 3 3 3 2 2 2 3 2 2 4 5 5 7 8 7 5 4
4 3 3 3 2 1 4 2 2 1 1 1 1 1 2 3 3 2 4 4 3 1 1 1 2 2 2 3 2 2 2 2 2 2 2 2 3 3 3 4 7 7 6
5 4 3 3 3 3 4 2 2 2 2 1 1 0 1 3 2 2 3 3 1 1 2 3 2 2 2 2 3 4 3 3 2 1 3 3 3 3 3 5 10 9 7
4 4 4 4 3 3 4 3 2 4 2 2 1 1 0 1 1 1 2 2 2 2 2 3 2 2 2 1 3 4 3 4 4 3 3 4 3 3 3 5 12 10 9
5 5 4 4 4 4 4 4 4 4 3 3 2 1 1 1 2 2 2 2 2 2 2 1 2 1 1 1 3 4 4 5 4 4 4 4 3 3 3 4 9 13 11
5 5 4 4 4 4 5 5 5 4 3 3 3 3 2 0 2 2 3 3 3 2 2 4 3 4 4 4 5 5 5 5 4 3 3 4 4 3 3 3 4 6 8
Wind_Direction
89 92 81 76 82 100 138 133 110 109 120 133 139 138 181 14 293 193 127 142 159 183 200 205 206 207 207 207 208 210 212 210 212 212 213 213 214 213 211 213 210 208 208
72 91 115 95 88 104 73 90 115 128 128 101 114 106 294 255 129 278 234 145 162 178 199 210 209 207 208 210 213 215 214 213 216 216 213 214 216 218 214 214 214 213 212
94 98 109 137 104 101 112 144 134 138 155 152 131 128 203 356 15 34 326 261 176 173 178 193 200 205 208 212 215 218 217 216 217 218 211 210 212 213 213 217 218 212 206
92 170 89 88 107 136 144 145 182 146 113 162 131 128 100 92 60 27 275 251 259 191 167 179 196 204 212 221 222 221 220 214 213 219 215 213 214 213 213 219 220 214 208
89 137 84 82 187 170 177 227 108 129 138 135 152 127 93 81 79 56 331 287 320 276 195 147 165 184 207 227 237 232 230 222 218 218 212 211 211 207 211 218 219 216 206
75 332 117 84 266 138 207 1 113 166 180 160 101 77 71 77 58 51 345 28 26 360 353 339 159 145 135 84 341 258 248 241 230 224 216 215 212 204 206 209 209 209 202
43 331 6 92 284 53 307 251 219 184 165 154 163 144 140 123 93 74 33 33 56 44 36 24 31 19 131 113 58 28 314 266 234 222 212 209 207 199 199 199 203 204 202
350 84 18 328 54 86 230 260 236 256 204 193 240 219 180 156 133 90 87 86 60 57 60 57 52 39 13 85 88 75 60 65 92 131 207 204 200 203 204 201 203 201 201
26 4 9 356 346 296 54 282 252 254 240 214 240 273 268 139 132 113 76 62 55 56 54 58 56 51 53 58 78 82 61 53 68 74 74 117 163 180 196 203 203 202 201
355 6 19 21 339 3 39 278 59 291 268 248 171 268 311 8 257 142 133 104 89 65 47 44 60 63 57 65 65 58 59 52 62 64 53 64 110 139 158 179 193 197 200
335 2 32 18 353 4 32 4 2 311 294 298 262 193 158 170 246 246 164 144 110 83 67 52 47 46 53 65 67 65 66 60 61 62 56 65 79 95 114 136 160 178 184
161 66 67 21 351 20 41 3 318 273 327 329 299 261 233 236 230 240 210 201 163 102 78 61 55 61 61 68 69 72 71 64 62 63 61 66 73 81 87 99 119 144 155
147 93 29 11 11 26 350 339 310 338 327 312 287 286 281 278 265 250 224 201 174 129 109 98 69 67 75 78 82 86 77 68 63 61 61 63 64 69 70 72 78 86 102
41 74 92 37 9 348 350 359 307 13 10 315 318 315 278 272 254 217 217 203 194 152 143 105 90 81 80 90 80 112 92 81 72 66 65 65 65 65 66 68 72 77 85
157 115 101 54 42 32 14 323 21 355 343 308 302 251 264 205 220 217 216 227 245 223 146 136 145 111 123 96 104 110 98 91 85 79 74 72 73 72 73 73 74 77 80
82 122 114 78 68 63 39 319 324 49 339 345 337 345 311 302 190 212 213 230 264 269 133 133 139 131 115 129 129 120 108 112 95 91 84 83 83 82 79 78 77 81 83
151 148 130 108 79 67 59 356 340 48 346 358 317 314 319 334 325 265 221 238 226 214 169 143 126 121 142 148 133 149 145 145 119 112 100 94 91 89 87 84 83 84 85
167 155 152 141 132 96 78 35 352 16 2 1 347 346 318 343 35 327 329 309 118 164 184 153 147 151 162 162 154 179 151 139 123 123 121 110 102 99 95 91 90 88 85
167 154 154 156 149 126 119 119 358 4 10 21 18 356 349 21 9 59 292 256 184 166 158 162 161 149 163 164 170 176 155 163 156 145 147 141 129 120 113 107 104 98 92
170 168 164 154 154 149 142 150 159 151 44 51 47 45 50 56 58 133 201 215 198 164 159 175 156 158 160 164 198 190 178 178 181 159 149 153 152 155 145 137 131 123 113
177 168 165 157 161 168 139 72 216 151 104 91 92 86 81 57 39 8 345 17 182 213 182 173 164 162 159 176 205 205 192 182 168 195 181 173 172 176 166 164 159 151 147
182 175 177 172 177 141 77 44 303 151 147 135 107 107 130 129 96 70 31 27 9 283 266 239 191 178 182 198 204 225 216 217 194 179 219 197 194 190 176 157 148 159 167
181 183 184 184 178 118 111 139 276 245 173 141 131 190 243 103 165 164 149 158 120 31 335 283 262 246 210 204 223 224 223 251 264 191 230 230 210 211 191 142 148 164 175
181 183 185 187 183 144 141 170 241 221 185 172 175 184 221 147 141 266 211 180 184 169 229 254 275 274 263 226 226 240 234 223 221 216 227 244 223 221 210 164 159 173 183
185 186 183 187 189 159 155 180 234 208 183 182 188 183 234 185 85 308 243 213 203 183 148 79 360 349 17 238 255 240 226 233 228 202 202 243 239 231 222 200 172 180 189
190 193 185 187 192 183 162 184 229 224 198 195 180 176 144 206 138 230 235 228 231 238 215 177 188 203 206 195 218 248 248 250 250 228 184 228 237 236 232 213 195 181 194